This is the latest recevied weather packets stored in our database for station/object DF9PM-13. If no packets are shown the sender has not sent any weather packets the latest 10 day(s).
| Time | Temp. | Humidity | Pressure | Rain* | Wind** | Luminosity | Snow |
|---|---|---|---|---|---|---|---|
| 1777750208 | 21.67° C | 42% | 1015.3 hPa | - | - | - | - |
| 1777749908 | 21.67° C | 42% | 1015.3 hPa | - | - | - | - |
| 1777749608 | 22.22° C | 44% | 1015.3 hPa | - | - | - | - |
| 1777749307 | 22.22° C | 42% | 1015.2 hPa | - | - | - | - |
| 1777749007 | 22.22° C | 42% | 1015.2 hPa | - | - | - | - |
| 1777748707 | 22.78° C | 41% | 1015.1 hPa | - | - | - | - |
| 1777748407 | 22.22° C | 42% | 1015.1 hPa | - | - | - | - |
| 1777748107 | 22.78° C | 40% | 1015.1 hPa | - | - | - | - |
| 1777747807 | 23.33° C | 43% | 1015.2 hPa | - | - | - | - |
| 1777747507 | 23.33° C | 41% | 1015.1 hPa | - | - | - | - |
| 1777747207 | 23.89° C | 38% | 1015.1 hPa | - | - | - | - |
| 1777746907 | 23.89° C | 36% | 1015.1 hPa | - | - | - | - |
| 1777746607 | 23.89° C | 37% | 1015.1 hPa | - | - | - | - |
| 1777746307 | 23.89° C | 35% | 1015.1 hPa | - | - | - | - |
| 1777746007 | 23.89° C | 35% | 1015.1 hPa | - | - | - | - |
| 1777745707 | 24.44° C | 34% | 1015.1 hPa | - | - | - | - |
| 1777745407 | 24.44° C | 34% | 1015.1 hPa | - | - | - | - |
| 1777745107 | 24.44° C | 34% | 1015.1 hPa | - | - | - | - |
| 1777744807 | 24.44° C | 34% | 1015.1 hPa | - | - | - | - |
| 1777744507 | 24.44° C | 35% | 1015 hPa | - | - | - | - |
| 1777744207 | 25° C | 35% | 1015.1 hPa | - | - | - | - |
| 1777743906 | 25° C | 34% | 1015.1 hPa | - | - | - | - |
| 1777743606 | 25° C | 33% | 1015.2 hPa | - | - | - | - |
| 1777743306 | 25° C | 33% | 1015.2 hPa | - | - | - | - |
| 1777743006 | 24.44° C | 35% | 1015.2 hPa | - | - | - | - |
* Rain since midnight (hover to see other rain measurements)
** Current wind speed in m/s (hover to see current wind gust speed)